Year,Month,Day,Hour,Minute,Value (Times are PST for temperature in C)
2019,06,12,00,00,19.90
2019,06,12,00,01,19.90
2019,06,12,00,02,19.90
2019,06,12,00,03,19.80
2019,06,12,00,04,19.80
2019,06,12,00,05,19.80
2019,06,12,00,06,19.80
2019,06,12,00,07,19.70
2019,06,12,00,08,19.70
2019,06,12,00,09,19.70
2019,06,12,00,10,19.70
2019,06,12,00,11,19.70
2019,06,12,00,12,19.60
2019,06,12,00,13,19.60
2019,06,12,00,14,19.60
2019,06,12,00,15,19.60
2019,06,12,00,16,19.60
2019,06,12,00,17,19.50
2019,06,12,00,18,19.50
2019,06,12,00,19,19.50
2019,06,12,00,20,19.50
2019,06,12,00,21,19.40
2019,06,12,00,22,19.40
2019,06,12,00,23,19.40
2019,06,12,00,24,19.40
2019,06,12,00,25,19.30
2019,06,12,00,26,19.30
2019,06,12,00,27,19.30
2019,06,12,00,28,19.30
2019,06,12,00,29,19.30
2019,06,12,00,30,19.20
2019,06,12,00,31,19.20
2019,06,12,00,32,19.20
2019,06,12,00,33,19.20
2019,06,12,00,34,19.10
2019,06,12,00,35,19.10
2019,06,12,00,36,19.10
2019,06,12,00,37,19.10
2019,06,12,00,38,19.00
2019,06,12,00,39,19.00
2019,06,12,00,40,18.90
2019,06,12,00,41,18.90
2019,06,12,00,42,18.90
2019,06,12,00,43,18.90
2019,06,12,00,44,18.90
2019,06,12,00,45,18.90
2019,06,12,00,46,18.80
2019,06,12,00,47,18.80
2019,06,12,00,48,18.80
2019,06,12,00,49,18.80
2019,06,12,00,50,18.80
2019,06,12,00,51,18.80
2019,06,12,00,52,18.80
2019,06,12,00,53,18.80
2019,06,12,00,54,18.70
2019,06,12,00,55,18.70
2019,06,12,00,56,18.70
2019,06,12,00,57,18.70
2019,06,12,00,58,18.70
2019,06,12,00,59,18.70
2019,06,12,01,00,18.70
2019,06,12,01,01,18.70
2019,06,12,01,02,18.60
2019,06,12,01,03,18.60
2019,06,12,01,04,18.60
2019,06,12,01,05,18.60
2019,06,12,01,06,18.60
2019,06,12,01,07,18.60
2019,06,12,01,08,18.60
2019,06,12,01,09,18.60
2019,06,12,01,10,18.60
2019,06,12,01,11,18.50
2019,06,12,01,12,18.50
2019,06,12,01,13,18.50
2019,06,12,01,14,18.50
2019,06,12,01,15,18.50
2019,06,12,01,16,18.40
2019,06,12,01,17,18.40
2019,06,12,01,18,18.40
2019,06,12,01,19,18.40
2019,06,12,01,20,18.40
2019,06,12,01,21,18.40
2019,06,12,01,22,18.30
2019,06,12,01,23,18.30
2019,06,12,01,24,18.30
2019,06,12,01,25,18.30
2019,06,12,01,26,18.30
2019,06,12,01,27,18.30
2019,06,12,01,28,18.30
2019,06,12,01,29,18.30
2019,06,12,01,30,18.30
2019,06,12,01,31,18.30
2019,06,12,01,32,18.30
2019,06,12,01,33,18.20
2019,06,12,01,34,18.20
2019,06,12,01,35,18.20
2019,06,12,01,36,18.20
2019,06,12,01,37,18.20
2019,06,12,01,38,18.20
2019,06,12,01,39,18.20
2019,06,12,01,40,18.20
2019,06,12,01,41,18.20
2019,06,12,01,42,18.20
2019,06,12,01,43,18.20
2019,06,12,01,44,18.20
2019,06,12,01,45,18.20
2019,06,12,01,46,18.20
2019,06,12,01,47,18.20
2019,06,12,01,48,18.20
2019,06,12,01,49,18.20
2019,06,12,01,50,18.20
2019,06,12,01,51,18.20
2019,06,12,01,52,18.20
2019,06,12,01,53,18.20
2019,06,12,01,54,18.20
2019,06,12,01,55,18.20
2019,06,12,01,56,18.20
2019,06,12,01,57,18.20
2019,06,12,01,58,18.20
2019,06,12,01,59,18.20
2019,06,12,02,00,18.20
2019,06,12,02,01,18.20
2019,06,12,02,02,18.20
2019,06,12,02,03,18.20
2019,06,12,02,04,18.20
2019,06,12,02,05,18.10
2019,06,12,02,06,18.10
2019,06,12,02,07,18.10
2019,06,12,02,08,18.10
2019,06,12,02,09,18.10
2019,06,12,02,10,18.10
2019,06,12,02,11,18.10
2019,06,12,02,12,18.10
2019,06,12,02,13,18.10
2019,06,12,02,14,18.10
2019,06,12,02,15,18.10
2019,06,12,02,16,18.00
2019,06,12,02,17,18.00
2019,06,12,02,18,18.00
2019,06,12,02,19,18.00
2019,06,12,02,20,18.00
2019,06,12,02,21,18.00
2019,06,12,02,22,18.00
2019,06,12,02,23,18.00
2019,06,12,02,24,18.00
2019,06,12,02,25,18.00
2019,06,12,02,26,17.90
2019,06,12,02,27,17.90
2019,06,12,02,28,17.90
2019,06,12,02,29,17.90
2019,06,12,02,30,17.90
2019,06,12,02,31,17.90
2019,06,12,02,32,17.90
2019,06,12,02,33,17.90
2019,06,12,02,34,17.90
2019,06,12,02,35,17.90
2019,06,12,02,36,17.90
2019,06,12,02,37,17.90
2019,06,12,02,38,17.90
2019,06,12,02,39,17.90
2019,06,12,02,40,17.90
2019,06,12,02,41,17.90
2019,06,12,02,42,17.90
2019,06,12,02,43,17.90
2019,06,12,02,44,17.80
2019,06,12,02,45,17.80
2019,06,12,02,46,17.80
2019,06,12,02,47,17.80
2019,06,12,02,48,17.80
2019,06,12,02,49,17.80
2019,06,12,02,50,17.80
2019,06,12,02,51,17.80
2019,06,12,02,52,17.80
2019,06,12,02,53,17.80
2019,06,12,02,54,17.80
2019,06,12,02,55,17.80
2019,06,12,02,56,17.80
2019,06,12,02,57,17.80
2019,06,12,02,58,17.80
2019,06,12,02,59,17.80
2019,06,12,03,00,17.80
2019,06,12,03,01,17.80
2019,06,12,03,02,17.80
2019,06,12,03,03,17.80
2019,06,12,03,04,17.80
2019,06,12,03,05,17.80
2019,06,12,03,06,17.80
2019,06,12,03,07,17.80
2019,06,12,03,08,17.80
2019,06,12,03,09,17.80
2019,06,12,03,10,17.80
2019,06,12,03,11,17.80
2019,06,12,03,12,17.80
2019,06,12,03,13,17.70
2019,06,12,03,14,17.70
2019,06,12,03,15,17.70
2019,06,12,03,16,17.70
2019,06,12,03,17,17.70
2019,06,12,03,18,17.70
2019,06,12,03,19,17.70
2019,06,12,03,20,17.70
2019,06,12,03,21,17.70
2019,06,12,03,22,17.70
2019,06,12,03,23,17.70
2019,06,12,03,24,17.70
2019,06,12,03,25,17.70
2019,06,12,03,26,17.70
2019,06,12,03,27,17.70
2019,06,12,03,28,17.70
2019,06,12,03,29,17.70
2019,06,12,03,30,17.70
2019,06,12,03,31,17.70
2019,06,12,03,32,17.70
2019,06,12,03,33,17.70
2019,06,12,03,34,17.60
2019,06,12,03,35,17.60
2019,06,12,03,36,17.60
2019,06,12,03,37,17.60
2019,06,12,03,38,17.60
2019,06,12,03,39,17.60
2019,06,12,03,40,17.60
2019,06,12,03,41,17.60
2019,06,12,03,42,17.60
2019,06,12,03,43,17.60
2019,06,12,03,44,17.60
2019,06,12,03,45,17.50
2019,06,12,03,46,17.50
2019,06,12,03,47,17.50
2019,06,12,03,48,17.50
2019,06,12,03,49,17.50
2019,06,12,03,50,17.50
2019,06,12,03,51,17.50
2019,06,12,03,52,17.50
2019,06,12,03,53,17.50
2019,06,12,03,54,17.50
2019,06,12,03,55,17.50
2019,06,12,03,56,17.40
2019,06,12,03,57,17.40
2019,06,12,03,58,17.40
2019,06,12,03,59,17.40
2019,06,12,04,00,17.40
2019,06,12,04,01,17.40
2019,06,12,04,02,17.40
2019,06,12,04,03,17.40
2019,06,12,04,04,17.40
2019,06,12,04,05,17.40
2019,06,12,04,06,17.40
2019,06,12,04,07,17.40
2019,06,12,04,08,17.40
2019,06,12,04,09,17.40
2019,06,12,04,10,17.40
2019,06,12,04,11,17.40
2019,06,12,04,12,17.30
2019,06,12,04,13,17.30
2019,06,12,04,14,17.30
2019,06,12,04,15,17.30
2019,06,12,04,16,17.30
2019,06,12,04,17,17.30
2019,06,12,04,18,17.30
2019,06,12,04,19,17.30
2019,06,12,04,20,17.30
2019,06,12,04,21,17.30
2019,06,12,04,22,17.30
2019,06,12,04,23,17.30
2019,06,12,04,24,17.30
2019,06,12,04,25,17.30
2019,06,12,04,26,17.30
2019,06,12,04,27,17.20
2019,06,12,04,28,17.20
2019,06,12,04,29,17.20
2019,06,12,04,30,17.20
2019,06,12,04,31,17.20
2019,06,12,04,32,17.20
2019,06,12,04,33,17.20
2019,06,12,04,34,17.20
2019,06,12,04,35,17.20
2019,06,12,04,36,17.20
2019,06,12,04,37,17.20
2019,06,12,04,38,17.20
2019,06,12,04,39,17.10
2019,06,12,04,40,17.10
2019,06,12,04,41,17.10
2019,06,12,04,42,17.10
2019,06,12,04,43,17.10
2019,06,12,04,44,17.10
2019,06,12,04,45,17.10
2019,06,12,04,46,17.10
2019,06,12,04,47,17.10
2019,06,12,04,48,17.10
2019,06,12,04,49,17.10
2019,06,12,04,50,17.10
2019,06,12,04,51,17.10
2019,06,12,04,52,17.10
2019,06,12,04,53,17.10
2019,06,12,04,54,17.10
2019,06,12,04,55,17.10
2019,06,12,04,56,17.00
2019,06,12,04,57,17.00
2019,06,12,04,58,17.00
2019,06,12,04,59,17.00
2019,06,12,05,00,17.00
2019,06,12,05,01,17.00
2019,06,12,05,02,17.00
2019,06,12,05,03,17.00
2019,06,12,05,04,17.00
2019,06,12,05,05,16.90
2019,06,12,05,06,16.90
2019,06,12,05,07,16.90
2019,06,12,05,08,16.90
2019,06,12,05,09,16.90
2019,06,12,05,10,16.90
2019,06,12,05,11,16.90
2019,06,12,05,12,16.90
2019,06,12,05,13,16.90
2019,06,12,05,14,16.90
2019,06,12,05,15,16.90
2019,06,12,05,16,16.90
2019,06,12,05,17,16.90
2019,06,12,05,18,16.80
2019,06,12,05,19,16.80
2019,06,12,05,20,16.80
2019,06,12,05,21,16.80
2019,06,12,05,22,16.80
2019,06,12,05,23,16.80
2019,06,12,05,24,16.80
2019,06,12,05,25,16.80
2019,06,12,05,26,16.80
2019,06,12,05,27,16.80
2019,06,12,05,28,16.80
2019,06,12,05,29,16.80
2019,06,12,05,30,16.80
2019,06,12,05,31,16.80
2019,06,12,05,32,16.70
2019,06,12,05,33,16.70
2019,06,12,05,34,16.70
2019,06,12,05,35,16.70
2019,06,12,05,36,16.70
2019,06,12,05,37,16.70
2019,06,12,05,38,16.70
2019,06,12,05,39,16.70
2019,06,12,05,40,16.70
2019,06,12,05,41,16.70
2019,06,12,05,42,16.70
2019,06,12,05,43,16.70
2019,06,12,05,44,16.70
2019,06,12,05,45,16.70
2019,06,12,05,46,16.70
2019,06,12,05,47,16.70
2019,06,12,05,48,16.70
2019,06,12,05,49,16.70
2019,06,12,05,50,16.70
2019,06,12,05,51,16.70
2019,06,12,05,52,16.70
2019,06,12,05,53,16.70
2019,06,12,05,54,16.70
2019,06,12,05,55,16.70
2019,06,12,05,56,16.70
2019,06,12,05,57,16.70
2019,06,12,05,58,16.70
2019,06,12,05,59,16.70
2019,06,12,06,00,16.70
2019,06,12,06,01,16.70
2019,06,12,06,02,16.70
2019,06,12,06,03,16.70
2019,06,12,06,04,16.70
2019,06,12,06,05,16.80
2019,06,12,06,06,16.80
2019,06,12,06,07,16.80
2019,06,12,06,08,16.80
2019,06,12,06,09,16.80
2019,06,12,06,10,16.80
2019,06,12,06,11,16.80
2019,06,12,06,12,16.80
2019,06,12,06,13,16.80
2019,06,12,06,14,16.80
2019,06,12,06,15,16.80
2019,06,12,06,16,16.80
2019,06,12,06,17,16.90
2019,06,12,06,18,16.90
2019,06,12,06,19,16.90
2019,06,12,06,20,16.90
2019,06,12,06,21,17.00
2019,06,12,06,22,17.00
2019,06,12,06,23,17.00
2019,06,12,06,24,17.00
2019,06,12,06,25,17.00
2019,06,12,06,26,17.10
2019,06,12,06,27,17.10
2019,06,12,06,28,17.10
2019,06,12,06,29,17.10
2019,06,12,06,30,17.10
2019,06,12,06,31,17.10
2019,06,12,06,32,17.20
2019,06,12,06,33,17.20
2019,06,12,06,34,17.20
2019,06,12,06,35,17.20
2019,06,12,06,36,17.20
2019,06,12,06,37,17.20
2019,06,12,06,38,17.20
2019,06,12,06,39,17.20
2019,06,12,06,40,17.30
2019,06,12,06,41,17.30
2019,06,12,06,42,17.30
2019,06,12,06,43,17.30
2019,06,12,06,44,17.30
2019,06,12,06,45,17.30
2019,06,12,06,46,17.30
2019,06,12,06,47,17.30
2019,06,12,06,48,17.40
2019,06,12,06,49,17.40
2019,06,12,06,50,17.40
2019,06,12,06,51,17.40
2019,06,12,06,52,17.40
2019,06,12,06,53,17.40
2019,06,12,06,54,17.40
2019,06,12,06,55,17.50
2019,06,12,06,56,17.50
2019,06,12,06,57,17.50
2019,06,12,06,58,17.50
2019,06,12,06,59,17.60
2019,06,12,07,00,17.60
2019,06,12,07,01,17.60
2019,06,12,07,02,17.60
2019,06,12,07,03,17.60
2019,06,12,07,04,17.70
2019,06,12,07,05,17.70
2019,06,12,07,06,17.70
2019,06,12,07,07,17.70
2019,06,12,07,08,17.80
2019,06,12,07,09,17.80
2019,06,12,07,10,17.80
2019,06,12,07,11,17.80
2019,06,12,07,12,17.90
2019,06,12,07,13,17.90
2019,06,12,07,14,17.90
2019,06,12,07,15,18.00
2019,06,12,07,16,18.00
2019,06,12,07,17,18.10
2019,06,12,07,18,18.10
2019,06,12,07,19,18.20
2019,06,12,07,20,18.30
2019,06,12,07,21,18.30
2019,06,12,07,22,18.40
2019,06,12,07,23,18.50
2019,06,12,07,24,18.60
2019,06,12,07,25,18.60
2019,06,12,07,26,18.70
2019,06,12,07,27,18.80
2019,06,12,07,28,18.90
2019,06,12,07,29,19.00
2019,06,12,07,30,19.10
2019,06,12,07,31,19.20
2019,06,12,07,32,19.30
2019,06,12,07,33,19.40
2019,06,12,07,34,19.50
2019,06,12,07,35,19.60
2019,06,12,07,36,19.80
2019,06,12,07,37,19.80
2019,06,12,07,38,19.90
2019,06,12,07,39,20.00
2019,06,12,07,40,20.10
2019,06,12,07,41,20.20
2019,06,12,07,42,20.30
2019,06,12,07,43,20.40
2019,06,12,07,44,20.40
2019,06,12,07,45,20.60
2019,06,12,07,46,20.70
2019,06,12,07,47,20.80
2019,06,12,07,48,20.90
2019,06,12,07,49,21.00
2019,06,12,07,50,21.10
2019,06,12,07,51,21.20
2019,06,12,07,52,21.30
2019,06,12,07,53,21.40
2019,06,12,07,54,21.50
2019,06,12,07,55,21.60
2019,06,12,07,56,21.70
2019,06,12,07,57,21.80
2019,06,12,07,58,21.90
2019,06,12,07,59,22.00
2019,06,12,08,00,22.10
2019,06,12,08,01,22.20
2019,06,12,08,02,22.30
2019,06,12,08,03,22.40
2019,06,12,08,04,22.50
2019,06,12,08,05,22.60
2019,06,12,08,06,22.60
2019,06,12,08,07,22.80
2019,06,12,08,08,22.80
2019,06,12,08,09,22.90
2019,06,12,08,10,23.00
2019,06,12,08,11,23.10
2019,06,12,08,12,23.20
2019,06,12,08,13,23.30
2019,06,12,08,14,23.30
2019,06,12,08,15,23.40
2019,06,12,08,16,23.50
2019,06,12,08,17,23.50
2019,06,12,08,18,23.60
2019,06,12,08,19,23.70
2019,06,12,08,20,23.70
2019,06,12,08,21,23.80
2019,06,12,08,22,23.90
2019,06,12,08,23,24.00
2019,06,12,08,24,24.10
2019,06,12,08,25,24.20
2019,06,12,08,26,24.30
2019,06,12,08,27,24.40
2019,06,12,08,28,24.50
2019,06,12,08,29,24.60
2019,06,12,08,30,24.60
2019,06,12,08,31,24.70
2019,06,12,08,32,24.70
2019,06,12,08,33,24.80
2019,06,12,08,34,24.80
2019,06,12,08,35,24.90
2019,06,12,08,36,24.90
2019,06,12,08,37,24.90
2019,06,12,08,38,25.00
2019,06,12,08,39,25.00
2019,06,12,08,40,25.10
2019,06,12,08,41,25.10
2019,06,12,08,42,25.20
2019,06,12,08,43,25.20
2019,06,12,08,44,25.30
2019,06,12,08,45,25.40
2019,06,12,08,46,25.40
2019,06,12,08,47,25.50
2019,06,12,08,48,25.60
2019,06,12,08,49,25.70
2019,06,12,08,50,25.70
2019,06,12,08,51,25.80
2019,06,12,08,52,25.80
2019,06,12,08,53,25.90
2019,06,12,08,54,25.90
2019,06,12,08,55,25.90
2019,06,12,08,56,26.00
2019,06,12,08,57,26.00
2019,06,12,08,58,26.10
2019,06,12,08,59,26.10
2019,06,12,09,00,26.10
2019,06,12,09,01,26.20
2019,06,12,09,02,26.20
2019,06,12,09,03,26.30
2019,06,12,09,04,26.30
2019,06,12,09,05,26.30
2019,06,12,09,06,26.30
2019,06,12,09,07,26.40
2019,06,12,09,08,26.40
2019,06,12,09,09,26.40
2019,06,12,09,10,26.40
2019,06,12,09,11,26.40
2019,06,12,09,12,26.40
2019,06,12,09,13,26.40
2019,06,12,09,14,26.50
2019,06,12,09,15,26.40
2019,06,12,09,16,26.40
2019,06,12,09,17,26.40
2019,06,12,09,18,26.40
2019,06,12,09,19,26.30
2019,06,12,09,20,26.30
2019,06,12,09,21,26.30
2019,06,12,09,22,26.40
2019,06,12,09,23,26.40
2019,06,12,09,24,26.40
2019,06,12,09,25,26.40
2019,06,12,09,26,26.40
2019,06,12,09,27,26.40
2019,06,12,09,28,26.40
2019,06,12,09,29,26.40
2019,06,12,09,30,26.40
2019,06,12,09,31,26.40
2019,06,12,09,32,26.30
2019,06,12,09,33,26.30
2019,06,12,09,34,26.40
2019,06,12,09,35,26.40
2019,06,12,09,36,26.40
2019,06,12,09,37,26.50
2019,06,12,09,38,26.50
2019,06,12,09,39,26.60
2019,06,12,09,40,26.60
2019,06,12,09,41,26.60
2019,06,12,09,42,26.60
2019,06,12,09,43,26.70
2019,06,12,09,44,26.70
2019,06,12,09,45,26.80
2019,06,12,09,46,26.80
2019,06,12,09,47,26.80
2019,06,12,09,48,26.80
2019,06,12,09,49,26.80
2019,06,12,09,50,26.80
2019,06,12,09,51,26.80
2019,06,12,09,52,26.80
2019,06,12,09,53,26.80
2019,06,12,09,54,26.90
2019,06,12,09,55,26.90
2019,06,12,09,56,26.90
2019,06,12,09,57,27.00
2019,06,12,09,58,27.00
2019,06,12,09,59,27.00
2019,06,12,10,00,26.90
2019,06,12,10,01,26.90
2019,06,12,10,02,27.00
2019,06,12,10,03,27.00
2019,06,12,10,04,27.00
2019,06,12,10,05,27.00
2019,06,12,10,06,27.10
2019,06,12,10,07,27.20
2019,06,12,10,08,27.30
2019,06,12,10,09,27.30
2019,06,12,10,10,27.30
2019,06,12,10,11,27.40
2019,06,12,10,12,27.40
2019,06,12,10,13,27.50
2019,06,12,10,14,27.50
2019,06,12,10,15,27.60
2019,06,12,10,16,27.70
2019,06,12,10,17,27.70
2019,06,12,10,18,27.70
2019,06,12,10,19,27.70
2019,06,12,10,20,27.70
2019,06,12,10,21,27.70
2019,06,12,10,22,27.70
2019,06,12,10,23,27.80
2019,06,12,10,24,27.80
2019,06,12,10,25,27.90
2019,06,12,10,26,28.00
2019,06,12,10,27,28.00
2019,06,12,10,28,28.10
2019,06,12,10,29,28.10
2019,06,12,10,30,28.20
2019,06,12,10,31,28.30
2019,06,12,10,32,28.30
2019,06,12,10,33,28.30
2019,06,12,10,34,28.40
2019,06,12,10,35,28.40
2019,06,12,10,36,28.50
2019,06,12,10,37,28.50
2019,06,12,10,38,28.50
2019,06,12,10,39,28.60
2019,06,12,10,40,28.60
2019,06,12,10,41,28.50
2019,06,12,10,42,28.40
2019,06,12,10,43,28.40
2019,06,12,10,44,28.50
2019,06,12,10,45,28.50
2019,06,12,10,46,28.50
2019,06,12,10,47,28.50
2019,06,12,10,48,28.50
2019,06,12,10,49,28.40
2019,06,12,10,50,28.40
2019,06,12,10,51,28.40
2019,06,12,10,52,28.40
2019,06,12,10,53,28.50
2019,06,12,10,54,28.60
2019,06,12,10,55,28.60
2019,06,12,10,56,28.70
2019,06,12,10,57,28.60
2019,06,12,10,58,28.70
2019,06,12,10,59,28.70
2019,06,12,11,00,28.70
2019,06,12,11,01,28.70
2019,06,12,11,02,28.60
2019,06,12,11,03,28.60
2019,06,12,11,04,28.60
2019,06,12,11,05,28.60
2019,06,12,11,06,28.60
2019,06,12,11,07,28.60
2019,06,12,11,08,28.70
2019,06,12,11,09,28.70
2019,06,12,11,10,28.70
2019,06,12,11,11,28.70
2019,06,12,11,12,28.70
2019,06,12,11,13,28.70
2019,06,12,11,14,28.80
2019,06,12,11,15,28.80
2019,06,12,11,16,28.80
2019,06,12,11,17,28.80
2019,06,12,11,18,28.90
2019,06,12,11,19,29.00
2019,06,12,11,20,29.10
2019,06,12,11,21,29.10
2019,06,12,11,22,29.20
2019,06,12,11,23,29.10
2019,06,12,11,24,29.10
2019,06,12,11,25,29.10
2019,06,12,11,26,29.00
2019,06,12,11,27,28.90
2019,06,12,11,28,28.90
2019,06,12,11,29,28.90
2019,06,12,11,30,28.90
2019,06,12,11,31,28.90
2019,06,12,11,32,28.90
2019,06,12,11,33,28.90
2019,06,12,11,34,28.90
2019,06,12,11,35,28.90
2019,06,12,11,36,28.90
2019,06,12,11,37,28.90
2019,06,12,11,38,28.80
2019,06,12,11,39,28.80
2019,06,12,11,40,28.80
2019,06,12,11,41,28.80
2019,06,12,11,42,28.80
2019,06,12,11,43,28.90
2019,06,12,11,44,28.90
2019,06,12,11,45,28.90
2019,06,12,11,46,28.90
2019,06,12,11,47,28.90
2019,06,12,11,48,29.00
2019,06,12,11,49,29.00
2019,06,12,11,50,29.00
2019,06,12,11,51,29.00
2019,06,12,11,52,29.00
2019,06,12,11,53,29.00
2019,06,12,11,54,29.00
2019,06,12,11,55,29.00
2019,06,12,11,56,29.00
2019,06,12,11,57,29.10
2019,06,12,11,58,29.10
2019,06,12,11,59,29.10
2019,06,12,12,00,29.10
2019,06,12,12,01,29.10
2019,06,12,12,02,29.10
2019,06,12,12,03,29.10
2019,06,12,12,04,29.00
2019,06,12,12,05,29.00
2019,06,12,12,06,29.00
2019,06,12,12,07,28.90
2019,06,12,12,08,28.90
2019,06,12,12,09,29.00
2019,06,12,12,10,29.10
2019,06,12,12,11,29.10
2019,06,12,12,12,29.20
2019,06,12,12,13,29.30
2019,06,12,12,14,29.40
2019,06,12,12,15,29.50
2019,06,12,12,16,29.60
2019,06,12,12,17,29.80
2019,06,12,12,18,29.90
2019,06,12,12,19,30.00
2019,06,12,12,20,30.10
2019,06,12,12,21,30.20
2019,06,12,12,22,30.30
2019,06,12,12,23,30.40
2019,06,12,12,24,30.40
2019,06,12,12,25,30.40
2019,06,12,12,26,30.40
2019,06,12,12,27,30.30
2019,06,12,12,28,30.30
2019,06,12,12,29,30.30
2019,06,12,12,30,30.30
2019,06,12,12,31,30.40
2019,06,12,12,32,30.40
2019,06,12,12,33,30.40
2019,06,12,12,34,30.40
2019,06,12,12,35,30.50
2019,06,12,12,36,30.60
2019,06,12,12,37,30.60
2019,06,12,12,38,30.60
2019,06,12,12,39,30.50
2019,06,12,12,40,30.50
2019,06,12,12,41,30.50
2019,06,12,12,42,30.50
2019,06,12,12,43,30.50
2019,06,12,12,44,30.50
2019,06,12,12,45,30.40
2019,06,12,12,46,30.30
2019,06,12,12,47,30.20
2019,06,12,12,48,30.10
2019,06,12,12,49,30.00
2019,06,12,12,50,30.00
2019,06,12,12,51,29.90
2019,06,12,12,52,29.80
2019,06,12,12,53,29.80
2019,06,12,12,54,29.80
2019,06,12,12,55,29.80
2019,06,12,12,56,29.80
2019,06,12,12,57,29.80
2019,06,12,12,58,29.80
2019,06,12,12,59,29.80
2019,06,12,13,00,29.90
2019,06,12,13,01,29.90
2019,06,12,13,02,29.90
2019,06,12,13,03,29.90
2019,06,12,13,04,29.90
2019,06,12,13,05,29.90
2019,06,12,13,06,29.80
2019,06,12,13,07,29.80
2019,06,12,13,08,29.70
2019,06,12,13,09,29.70
2019,06,12,13,10,29.60
2019,06,12,13,11,29.60
2019,06,12,13,12,29.60
2019,06,12,13,13,29.60
2019,06,12,13,14,29.60
2019,06,12,13,15,29.60
2019,06,12,13,16,29.60
2019,06,12,13,17,29.60
2019,06,12,13,18,29.60
2019,06,12,13,19,29.70
2019,06,12,13,20,29.80
2019,06,12,13,21,29.80
2019,06,12,13,22,29.90
2019,06,12,13,23,29.90
2019,06,12,13,24,29.90
2019,06,12,13,25,30.00
2019,06,12,13,26,30.00
2019,06,12,13,27,30.00
2019,06,12,13,28,30.00
2019,06,12,13,29,30.00
2019,06,12,13,30,30.00
2019,06,12,13,31,30.10
2019,06,12,13,32,30.10
2019,06,12,13,33,30.00
2019,06,12,13,34,30.00
2019,06,12,13,35,29.90
2019,06,12,13,36,29.90
2019,06,12,13,37,29.80
2019,06,12,13,38,29.80
2019,06,12,13,39,29.80
2019,06,12,13,40,29.80
2019,06,12,13,41,29.80
2019,06,12,13,42,29.80
2019,06,12,13,43,29.80
2019,06,12,13,44,29.80
2019,06,12,13,45,29.80
2019,06,12,13,46,29.70
2019,06,12,13,47,29.70
2019,06,12,13,48,29.70
2019,06,12,13,49,29.70
2019,06,12,13,50,29.80
2019,06,12,13,51,29.80
2019,06,12,13,52,29.90
2019,06,12,13,53,30.10
2019,06,12,13,54,30.20
2019,06,12,13,55,30.30
2019,06,12,13,56,30.40
2019,06,12,13,57,30.40
2019,06,12,13,58,30.50
2019,06,12,13,59,30.60
2019,06,12,14,00,30.60
2019,06,12,14,01,30.60
2019,06,12,14,02,30.70
2019,06,12,14,03,30.80
2019,06,12,14,04,30.90
2019,06,12,14,05,30.90
2019,06,12,14,06,31.00
2019,06,12,14,07,31.00
2019,06,12,14,08,31.10
2019,06,12,14,09,31.10
2019,06,12,14,10,31.20
2019,06,12,14,11,31.20
2019,06,12,14,12,31.20
2019,06,12,14,13,31.20
2019,06,12,14,14,31.20
2019,06,12,14,15,31.20
2019,06,12,14,16,31.10
2019,06,12,14,17,31.10
2019,06,12,14,18,31.10
2019,06,12,14,19,31.10
2019,06,12,14,20,31.10
2019,06,12,14,21,31.10
2019,06,12,14,22,31.10
2019,06,12,14,23,31.20
2019,06,12,14,24,31.20
2019,06,12,14,25,31.20
2019,06,12,14,26,31.30
2019,06,12,14,27,31.30
2019,06,12,14,28,31.30
2019,06,12,14,29,31.30
2019,06,12,14,30,31.30
2019,06,12,14,31,31.30
2019,06,12,14,32,31.30
2019,06,12,14,33,31.30
2019,06,12,14,34,31.20
2019,06,12,14,35,31.20
2019,06,12,14,36,31.20
2019,06,12,14,37,31.20
2019,06,12,14,38,31.20
2019,06,12,14,39,31.10
2019,06,12,14,40,31.00
2019,06,12,14,41,31.00
2019,06,12,14,42,31.00
2019,06,12,14,43,31.00
2019,06,12,14,44,31.10
2019,06,12,14,45,31.10
2019,06,12,14,46,31.10
2019,06,12,14,47,31.10
2019,06,12,14,48,31.10
2019,06,12,14,49,31.10
2019,06,12,14,50,31.10
2019,06,12,14,51,31.00
2019,06,12,14,52,31.00
2019,06,12,14,53,30.90
2019,06,12,14,54,30.90
2019,06,12,14,55,30.80
2019,06,12,14,56,30.80
2019,06,12,14,57,30.80
2019,06,12,14,58,30.80
2019,06,12,14,59,30.80
2019,06,12,15,00,30.80
2019,06,12,15,01,30.80
2019,06,12,15,02,30.70
2019,06,12,15,03,30.70
2019,06,12,15,04,30.60
2019,06,12,15,05,30.60
2019,06,12,15,06,30.60
2019,06,12,15,07,30.60
2019,06,12,15,08,30.50
2019,06,12,15,09,30.50
2019,06,12,15,10,30.40
2019,06,12,15,11,30.40
2019,06,12,15,12,30.40
2019,06,12,15,13,30.40
2019,06,12,15,14,30.40
2019,06,12,15,15,30.40
2019,06,12,15,16,30.40
2019,06,12,15,17,30.40
2019,06,12,15,18,30.50
2019,06,12,15,19,30.50
2019,06,12,15,20,30.60
2019,06,12,15,21,30.70
2019,06,12,15,22,30.80
2019,06,12,15,23,30.90
2019,06,12,15,24,30.90
2019,06,12,15,25,31.00
2019,06,12,15,26,31.00
2019,06,12,15,27,31.10
2019,06,12,15,28,31.10
2019,06,12,15,29,31.00
2019,06,12,15,30,31.00
2019,06,12,15,31,31.00
2019,06,12,15,32,30.90
2019,06,12,15,33,30.90
2019,06,12,15,34,30.90
2019,06,12,15,35,30.90
2019,06,12,15,36,30.80
2019,06,12,15,37,30.80
2019,06,12,15,38,30.80
2019,06,12,15,39,30.80
2019,06,12,15,40,30.80
2019,06,12,15,41,30.80
2019,06,12,15,42,30.80
2019,06,12,15,43,30.70
2019,06,12,15,44,30.70
2019,06,12,15,45,30.70
2019,06,12,15,46,30.70
2019,06,12,15,47,30.70
2019,06,12,15,48,30.60
2019,06,12,15,49,30.60
2019,06,12,15,50,30.50
2019,06,12,15,51,30.40
2019,06,12,15,52,30.30
2019,06,12,15,53,30.30
2019,06,12,15,54,30.30
2019,06,12,15,55,30.20
2019,06,12,15,56,30.20
2019,06,12,15,57,30.20
2019,06,12,15,58,30.10
2019,06,12,15,59,30.10
2019,06,12,16,00,30.00
2019,06,12,16,01,30.00
2019,06,12,16,02,29.90
2019,06,12,16,03,29.90
2019,06,12,16,04,29.80
2019,06,12,16,05,29.80
2019,06,12,16,06,29.80
2019,06,12,16,07,29.70
2019,06,12,16,08,29.60
2019,06,12,16,09,29.50
2019,06,12,16,10,29.40
2019,06,12,16,11,29.30
2019,06,12,16,12,29.20
2019,06,12,16,13,29.20
2019,06,12,16,14,29.10
2019,06,12,16,15,29.10
2019,06,12,16,16,29.10
2019,06,12,16,17,29.10
2019,06,12,16,18,29.00
2019,06,12,16,19,29.00
2019,06,12,16,20,29.00
2019,06,12,16,21,29.10
2019,06,12,16,22,29.10
2019,06,12,16,23,29.10
2019,06,12,16,24,29.20
2019,06,12,16,25,29.20
2019,06,12,16,26,29.20
2019,06,12,16,27,29.20
2019,06,12,16,28,29.10
2019,06,12,16,29,29.10
2019,06,12,16,30,29.20
2019,06,12,16,31,29.20
2019,06,12,16,32,29.30
2019,06,12,16,33,29.40
2019,06,12,16,34,29.50
2019,06,12,16,35,29.60
2019,06,12,16,36,29.70
2019,06,12,16,37,29.80
2019,06,12,16,38,29.90
2019,06,12,16,39,30.00
2019,06,12,16,40,30.10
2019,06,12,16,41,30.20
2019,06,12,16,42,30.30
2019,06,12,16,43,30.40
2019,06,12,16,44,30.50
2019,06,12,16,45,30.60
2019,06,12,16,46,30.60
2019,06,12,16,47,30.70
2019,06,12,16,48,30.80
2019,06,12,16,49,30.90
2019,06,12,16,50,30.90
2019,06,12,16,51,31.00
2019,06,12,16,52,31.10
2019,06,12,16,53,31.10
2019,06,12,16,54,31.20
2019,06,12,16,55,31.20
2019,06,12,16,56,31.20
2019,06,12,16,57,31.30
2019,06,12,16,58,31.30
2019,06,12,16,59,31.30
2019,06,12,17,00,31.40
2019,06,12,17,01,31.40
2019,06,12,17,02,31.50
2019,06,12,17,03,31.50
2019,06,12,17,04,31.60
2019,06,12,17,05,31.60
2019,06,12,17,06,31.60
2019,06,12,17,07,31.70
2019,06,12,17,08,31.60
2019,06,12,17,09,31.60
2019,06,12,17,10,31.60
2019,06,12,17,11,31.60
2019,06,12,17,12,31.70
2019,06,12,17,13,31.70
2019,06,12,17,14,31.80
2019,06,12,17,15,31.80
2019,06,12,17,16,31.80
2019,06,12,17,17,31.80
2019,06,12,17,18,31.80
2019,06,12,17,19,31.90